Regional Weather Roundup
Issued by NWS Sterling, VA

Home | Current Version | Previous Version | Graphics & Text | Print | Product List | Glossary On
Versions: 1 2 3 4 5 6 7 8 9 10 11 12 13 14 15 16 17 18 19 20 21 22 23 24 25 26 27
000
ASUS41 KLWX 182011
RWRLWX

REGIONAL WEATHER ROUNDUP
NATIONAL WEATHER SERVICE BALTIMORE MD/WASHINGTON DC
300 PM EST SUN FEB 18 2018

Note: "FAIR" indicates few or no clouds below 12,000 feet
with no significant weather and/or obstructions to visibility.
 TC=TEMPERATURE CELSIUS

 * =Non NWS site. Station does not report precipitation (e.g. rain,
    snow, etc.), thunder, or fog.

DCZ001-MDZ009-015-VAZ040>042-051-053>054-182100-
WASHINGTON METRO

CITY           SKY/WX    TMP DP  RH WIND       PRES   REMARKS
WASHINGTON NAT FAIR      50  30  46 E3        30.40S
DULLES         PTSUNNY   48  29  47 VRB3      30.39S
ANDREWS AFB    SUNNY     50  36  57 CALM      30.40S
FT BELVOIR     FAIR      51  27  38 N3        30.40S
QUANTICO       FAIR      50  37  61 E6        30.41S
COLLEGE PARK*  FAIR      47  29  48 NW6       30.40S
LEESBURG*      FAIR      48  32  53 NW3       30.39S
MANASSAS*      FAIR      50  29  44 VRB5      30.40S

$$

MDZ006>007-011-014-182100-
BALTIMORE METRO

CITY           SKY/WX    TMP DP  RH WIND       PRES   REMARKS
BWI AIRPORT    PTSUNNY   47  32  56 W8        30.40R
MD SCIENCE CTR   N/A     48  29  47 MISG      30.39F
MARTIN STATE   MOSUNNY   46  37  71 SE6         N/A
ANNAPOLIS      FAIR      45  35  68 SE8       30.40S
FORT MEADE*    FAIR      46  32  57 W7        30.42R

$$

MDZ012-015-019>023-182100-
MARYLAND EASTERN SHORE

CITY           SKY/WX    TMP DP  RH WIND       PRES   REMARKS
OCEAN CITY     FAIR      50  30  46 N10       30.40S
SALISBURY      FAIR      49  32  52 NW9       30.39F
BAY BRIDGE AP* FAIR      46  32  57 NW3       30.41S
CAMBRIDGE*     SUNNY     46  30  53 NW9       30.41S
EASTON*        MOSUNNY   48  30  49 W7        30.44S

$$

MDZ017>025-182100-
SOUTHERN MARYLAND

CITY           SKY/WX    TMP DP  RH WIND       PRES   REMARKS
PATUXENT RIVER FAIR      48  34  58 NE9       30.40S
ST INIGOES     FAIR      50  31  48 NE7       30.40R
LEONARDTOWN*   FAIR      50  30  46 NW5       30.41S

$$

MDZ003>005-182100-
NORTH CENTRAL MARYLAND

CITY           SKY/WX    TMP DP  RH WIND       PRES   REMARKS
FREDERICK*     SUNNY     48  37  66 W6        30.42S
HAGERSTOWN APT FAIR      46  28  49 NW8       30.37S
WESTMINSTER*   FAIR      46  30  53 W7        30.37R

$$

MDZ501>502-182100-
WESTERN MARYLAND

CITY           SKY/WX    TMP DP  RH WIND       PRES   REMARKS
OAKLAND*       FAIR      32  27  80 SW8       30.31R WCI  25
CUMBERLAND*    FAIR      46  27  46 S5        30.42S

$$

VAZ025>031-182100-
SHENANDOAH VALLEY

CITY           SKY/WX    TMP DP  RH WIND       PRES   REMARKS
WINCHESTER*    FAIR      45  28  53 W7        30.38S
FRONT ROYAL*   FAIR      46  30  53 W6        30.36S
LURAY*         FAIR      50  28  43 CALM      30.36S
NEW MARKET*    FAIR      48  25  40 S3        30.35F
STAUNTON*      FAIR      49  30  48 SW7       30.35F
WAYNESBORO*    FAIR      50  30  45 CALM      30.33S

$$

WVZ021-048>050-054>055-182100-
EASTERN WEST VIRGINIA PANHANDLE

CITY           SKY/WX    TMP DP  RH WIND       PRES   REMARKS
MARTINSBURG    FAIR      47  26  44 NW7       30.36F
PETERSBURG*    FAIR      48  25  39 E5        30.35S

$$

VAZ036>039-050-182100-
CENTRAL FOOTHILLS

CITY           SKY/WX    TMP DP  RH WIND       PRES   REMARKS
CHARLOTTESVILL FAIR      54  30  40 VRB3      30.36F
CULPEPER*      FAIR      52  28  39 S3        30.40S
ORANGE*        FAIR      50  32  50 CALM      30.37F
GORDONSVILLE*  FAIR      52  32  45 S3        30.36F
WARRENTON*     FAIR      52  26  35 N3        30.39R

$$

VAZ055>057-182100-
NORTH AND CENTRAL PIEDMONT

CITY           SKY/WX    TMP DP  RH WIND       PRES   REMARKS
FREDERICKSBRG* FAIR      53  31  42 NE5       30.39S
STAFFORD*      FAIR      53  29  39 CALM      30.44S

$$

NCZ024-NYZ072-PAZ021-071-VAZ022-071-182100-
OTHER REGIONAL OBSERVATIONS

CITY           SKY/WX    TMP DP  RH WIND       PRES   REMARKS
NEW YORK CITY  FAIR      44  22  41 VRB7      30.38R
PHILADELPHIA   PTSUNNY   46  25  43 NW13      30.38F
PITTSBURGH     CLOUDY    38  28  67 S7        30.36R WCI  33
ROANOKE        FAIR      53  26  35 CALM      30.35F
RICHMOND       FAIR      55  32  41 NW3       30.38S
RALEIGH        FAIR      60  34  37 E7        30.34S

$$

ANZ530>537-182100-
MARINE OBSERVATIONS

STATION/POSITION TIME  TEMP    WIND        PRES
                       AIR SEA DIR/SP/G
                 (UTC) (F)     (DEG/KT/KT) (MB)
THOMAS PT LIGHT  2000   42 38  130/  4/  5   N/A
BALT KEY BRIDGE  1948   44     130/  2/  6 1029.6F
COVE POINT       1948   43      50/  6/  7 1030.3F
LEWISETTA        1948   43 45  120/ 10/ 11 1029.8R
SOLOMONS ISLAND  1948   44 40   90/  9/ 10 1029.3R

$$





USA.gov is the U.S. government's official web portal to all federal, state and local government web resources and services.